Project,Study,Ord_Occ,Event_Num,Cast_ID,Date_Time_UTC,Date_Time_PST,Lat_Dec,Lon_Dec,Sta_ID,Line,Sta,Depth,Pressure,PrQ,Temp1,Temp1Q,Temp2,Temp2Q,TempAve,Salt1,Salt1Q,Salt1_Corr,Salt2,Salt2Q,Salt2_Corr,SaltAve_Corr,Ox1,Ox1Q,Ox1_CruiseCorr,Ox1_StaCorr,Ox2,Ox2Q,Ox2_CruiseCorr,Ox2_StaCorr,OxAve_StaCorr,Ox1uM,Ox1uM_CruiseCorr,Ox1uM_StaCorr,Ox2uM,Ox2uM_CruiseCorr,Ox2uM_StaCorr,OxAveuM_StaCorr,FluorV,FluorQ,EstChl_CruiseCorr,EstChl_StaCorr,ISUSV,ISUSQ,EstNO3_CruiseCorr,EstNO3_StaCorr,SigThetaTS1,SigThetaTS1Q,SigThetaTS2,SigThetaTS2Q,BAT,XMiss,TransQ,pH,pHQ,SPAR,SPARQ,PAR,PARQ,PoT1,PoT2,DynHt,SVA,OxSat1,OxSat2,BTL_Depth,BTL_Temp,SaltB,OxB,OxBuM,Chl-a,Phaeo,NO3,NO2,NH4,PO4,SIL
CalCOFI,2105SH,039,,2105_039d,13-May-2021 00:20:29,12-May-2021 16:20:29,34.45136,-120.52353,080.0 051.0,080.0,051.0,3.000,3.022,,15.4761,,15.4781,,15.4771,33.6927,,33.6939,33.7015,,33.7034,33.6987,6.2660,,6.6191,,6.2954,,6.5802,,,273.052,287.9474,292.4899,274.330,300.0254,292.4453,292.4676,0.3068,,1.8963,3.6438,2.8157,,1.9381,,24.8597,,24.8660,,,,,,,,,,,15.4757,15.4777,-0.0010,308.222,110.230,110.757,3,15.508,33.7206,,287.25,3.371,0.829,1.35,0.042,0.12,0.32,3.27
CalCOFI,2105SH,039,,2105_039d,13-May-2021 00:20:40,12-May-2021 16:20:40,34.45137,-120.52349,080.0 051.0,080.0,051.0,4.000,4.029,,15.4638,,15.4613,,15.4626,33.7056,,33.7068,33.7075,,33.7094,33.7081,6.2129,,6.5636,,6.3260,,6.6119,,,270.734,285.5241,290.1638,275.663,297.5220,293.8219,291.9929,0.3405,,2.1019,3.9776,2.8647,,1.9381,,24.8724,,24.8744,,,,,,,,,,,15.4632,15.4606,0.0044,307.049,109.278,111.263,,,,,,,,,,,,
CalCOFI,2105SH,039,,2105_039d,13-May-2021 00:20:45,12-May-2021 16:20:45,34.45136,-120.52348,080.0 051.0,080.0,051.0,5.000,5.036,,15.4706,,15.4713,,15.4710,33.7064,,33.7076,33.7088,,33.7107,33.7092,6.2684,,6.6216,,6.3320,,6.6181,,,273.153,288.0529,292.5912,275.922,300.1345,294.0894,293.3403,0.3244,,2.0044,3.8182,2.8606,,1.9381,,24.8715,,24.8732,,,,,,,,,,,15.4698,15.4705,0.0085,307.158,110.269,111.391,,,,,,,,,,,,
CalCOFI,2105SH,039,,2105_039d,13-May-2021 00:20:49,12-May-2021 16:20:49,34.45136,-120.52349,080.0 051.0,080.0,051.0,6.000,6.044,,15.4687,,15.4680,,15.4684,33.7081,,33.7093,33.7094,,33.7113,33.7103,6.2123,,6.5629,,6.2397,,6.5225,,,270.708,285.4969,290.1378,271.900,297.4939,289.9358,290.0368,0.3301,,2.0391,3.8746,2.8476,,1.9381,,24.8733,,24.8744,,,,,,,,,,,15.4677,15.4670,0.0118,307.017,109.280,109.760,,,,,,,,,,,,
CalCOFI,2105SH,039,,2105_039d,13-May-2021 00:20:51,12-May-2021 16:20:51,34.45136,-120.52348,080.0 051.0,080.0,051.0,7.000,7.051,,15.4609,,15.4711,,15.4660,33.7098,,33.7110,33.7079,,33.7098,33.7104,5.8791,,6.2145,,5.8989,,6.1695,,,256.188,270.3177,275.5673,257.052,281.8123,274.6021,275.0847,0.3156,,1.9505,3.7310,2.8222,,1.9381,,24.8764,,24.8726,,,,,,,,,,,15.4599,15.4700,0.0149,306.761,103.404,103.772,,,,,,,,,,,,
CalCOFI,2105SH,039,,2105_039d,13-May-2021 00:20:52,12-May-2021 16:20:52,34.45136,-120.52348,080.0 051.0,080.0,051.0,8.000,8.058,,15.0170,,15.0154,,15.0162,33.7429,,33.7441,33.7105,,33.7124,33.7283,5.8095,,6.1417,,5.8767,,6.1465,,,253.123,267.1136,272.4916,256.058,278.5020,273.5755,273.0336,0.3565,,2.1977,4.1362,2.8033,,1.9381,,24.9992,,24.9746,,,,,,,,,,,15.0158,15.0142,0.0179,295.094,101.304,102.452,,,,,,,,,,,,
CalCOFI,2105SH,039,,2105_039d,13-May-2021 00:20:55,12-May-2021 16:20:55,34.45136,-120.52348,080.0 051.0,080.0,051.0,9.000,9.065,,14.5212,,14.5385,,14.5299,33.7474,,33.7486,33.7337,,33.7356,33.7421,5.6065,,5.9294,,5.5738,,5.8327,,,244.253,257.8409,263.5908,242.833,268.9224,259.9179,261.7544,0.3563,,2.1965,4.1342,2.7497,,1.9381,,25.1097,,25.0954,,,,,,,,,,,14.5199,14.5372,0.0209,284.602,96.803,96.264,,,,,,,,,,,,
CalCOFI,2105SH,039,,2105_039d,13-May-2021 00:20:57,12-May-2021 16:20:57,34.45136,-120.52348,080.0 051.0,080.0,051.0,10.000,10.073,,14.1045,,14.1367,,14.1206,33.7722,,33.7734,33.7325,,33.7344,33.7539,5.2988,,5.6076,,5.3115,,5.5611,,,230.822,243.8001,250.1131,231.383,254.4169,248.0934,249.1033,0.3249,,2.0074,3.8231,2.6912,,1.9381,,25.2167,,25.1792,,,,,,,,,,,14.1031,14.1353,0.0237,274.444,90.737,90.990,10,14.534,,,265.01,3.899,0.913,5.67,0.110,0.37,0.68,8.87
CalCOFI,2105SH,039,,2105_039d,13-May-2021 00:20:58,12-May-2021 16:20:58,34.45136,-120.52346,080.0 051.0,080.0,051.0,11.000,11.080,,13.7445,,13.7447,,13.7446,33.7734,,33.7746,33.7482,,33.7501,33.7624,5.2572,,5.5641,,5.3165,,5.5662,,,228.996,241.8912,248.2808,231.582,252.4448,248.2989,248.2899,0.3168,,1.9579,3.7429,2.6531,,1.9381,,25.2924,,25.2729,,,,,,,,,,,13.7429,13.7431,0.0264,267.265,89.371,90.365,,,,,,,,,,,,
CalCOFI,2105SH,039,,2105_039d,13-May-2021 00:21:00,12-May-2021 16:21:00,34.45136,-120.52346,080.0 051.0,080.0,051.0,12.000,12.087,,13.5785,,13.5837,,13.5811,33.7695,,33.7707,33.7561,,33.7580,33.7644,5.2163,,5.5213,,5.3008,,5.5500,,,227.205,240.0189,246.4836,230.889,250.5105,247.5832,247.0334,0.2719,,1.6776,3.2981,2.5916,,1.9381,,25.3234,,25.3120,,,,,,,,,,,13.5769,13.5820,0.0291,264.337,88.373,89.807,,,,,,,,,,,,
CalCOFI,2105SH,039,,2105_039d,13-May-2021 00:21:02,12-May-2021 16:21:02,34.45136,-120.52345,080.0 051.0,080.0,051.0,13.000,13.094,,13.5182,,13.5176,,13.5179,33.7713,,33.7725,33.7613,,33.7632,33.7679,5.2152,,5.5202,,5.2933,,5.5422,,,227.155,239.9666,246.4334,230.561,250.4565,247.2445,246.8390,0.2677,,1.6509,3.2564,2.5246,,1.9381,,25.3372,,25.3296,,,,,,,,,,,13.5164,13.5157,0.0317,263.059,88.247,89.563,,,,,,,,,,,,
CalCOFI,2105SH,039,,2105_039d,13-May-2021 00:21:04,12-May-2021 16:21:04,34.45136,-120.52344,080.0 051.0,080.0,051.0,14.000,14.102,,13.5084,,13.5095,,13.5090,33.7724,,33.7736,33.7654,,33.7673,33.7705,5.1944,,5.4984,,5.2893,,5.5381,,,226.250,239.0206,245.5252,230.383,249.4791,247.0606,246.2929,0.2855,,1.7635,3.4328,2.4783,,1.9381,,25.3401,,25.3344,,,,,,,,,,,13.5065,13.5075,0.0344,262.808,87.878,89.481,,,,,,,,,,,,
CalCOFI,2105SH,039,,2105_039d,13-May-2021 00:21:07,12-May-2021 16:21:07,34.45136,-120.52344,080.0 051.0,080.0,051.0,15.000,15.109,,13.5019,,13.5023,,13.5021,33.7744,,33.7756,33.7691,,33.7710,33.7733,5.2233,,5.5286,,5.2705,,5.5186,,,227.508,240.3357,246.7876,229.564,250.8378,246.2149,246.5013,0.2940,,1.8168,3.5170,2.4402,,1.9381,,25.3430,,25.3388,,,,,,,,,,,13.4998,13.5002,0.0370,262.566,88.357,89.153,,,,,,,,,,,,
CalCOFI,2105SH,039,,2105_039d,13-May-2021 00:21:08,12-May-2021 16:21:08,34.45136,-120.52344,080.0 051.0,080.0,051.0,16.000,16.116,,13.5030,,13.5004,,13.5017,33.7749,,33.7761,33.7704,,33.7723,33.7742,5.2012,,5.5055,,5.2547,,5.5022,,,226.544,239.3279,245.8203,228.874,249.7967,245.5023,245.6613,0.3088,,1.9087,3.6636,2.4255,,1.9381,,25.3431,,25.3402,,,,,,,,,,,13.5007,13.4982,0.0397,262.575,87.984,88.882,,,,,,,,,,,,
CalCOFI,2105SH,039,,2105_039d,13-May-2021 00:21:09,12-May-2021 16:21:09,34.45136,-120.52344,080.0 051.0,080.0,051.0,17.000,17.124,,13.4823,,13.4773,,13.4798,33.7782,,33.7794,33.7724,,33.7743,33.7769,5.1653,,5.4680,,5.2460,,5.4932,,,224.979,237.6918,244.2498,228.494,248.1064,245.1098,244.6798,0.3308,,2.0433,3.8816,2.4132,,1.9381,,25.3499,,25.3465,,,,,,,,,,,13.4799,13.4749,0.0423,261.957,87.342,88.694,,,,,,,,,,,,
CalCOFI,2105SH,039,,2105_039d,13-May-2021 00:21:12,12-May-2021 16:21:12,34.45136,-120.52344,080.0 051.0,080.0,051.0,18.000,18.131,,13.4398,,13.4362,,13.4380,33.7800,,33.7812,33.7757,,33.7776,33.7794,5.1723,,5.4753,,5.2365,,5.4834,,,225.281,238.0076,244.5529,228.081,248.4326,244.6833,244.6181,0.3096,,1.9136,3.6715,2.3964,,1.9381,,25.3600,,25.3574,,,,,,,,,,,13.4373,13.4337,0.0450,261.031,87.385,88.462,,,,,,,,,,,,
CalCOFI,2105SH,039,,2105_039d,13-May-2021 00:21:14,12-May-2021 16:21:14,34.45136,-120.52344,080.0 051.0,080.0,051.0,19.000,19.138,,13.4148,,13.4161,,13.4155,33.7817,,33.7829,33.7773,,33.7792,33.7811,5.1395,,5.4410,,5.2154,,5.4615,,,223.852,236.5137,243.1189,227.160,246.8893,243.7322,243.4256,0.3308,,2.0433,3.8816,2.3851,,1.9381,,25.3664,,25.3627,,,,,,,,,,,13.4122,13.4134,0.0476,260.448,86.788,88.070,,,,,,,,,,,,
CalCOFI,2105SH,039,,2105_039d,13-May-2021 00:21:16,12-May-2021 16:21:16,34.45136,-120.52344,080.0 051.0,080.0,051.0,20.000,20.145,,13.3586,,13.3582,,13.3584,33.7873,,33.7885,33.7815,,33.7834,33.7860,5.1204,,5.4210,,5.2016,,5.4472,,,223.018,235.6418,242.2820,226.553,245.9886,243.1054,242.6937,0.3320,,2.0506,3.8934,2.3804,,1.9381,,25.3821,,25.3778,,,,,,,,,,,13.3558,13.3554,0.0502,258.977,86.369,87.734,,,,,,,,,,,,
CalCOFI,2105SH,039,,2105_039d,13-May-2021 00:21:17,12-May-2021 16:21:17,34.45136,-120.52344,080.0 051.0,080.0,051.0,21.000,21.153,,13.3177,,13.3168,,13.3173,33.7904,,33.7916,33.7860,,33.7879,33.7898,5.1064,,5.4064,,5.1800,,5.4248,,,222.402,234.9979,241.6638,225.612,245.3233,242.1336,241.8987,0.3143,,1.9425,3.7181,2.3756,,1.9381,,25.3928,,25.3896,,,,,,,,,,,13.3148,13.3139,0.0528,257.984,86.061,87.299,,,,,,,,,,,,
CalCOFI,2105SH,039,,2105_039d,13-May-2021 00:21:18,12-May-2021 16:21:18,34.45136,-120.52344,080.0 051.0,080.0,051.0,22.000,22.160,,13.2807,,13.2818,,13.2813,33.7915,,33.7927,33.7869,,33.7888,33.7908,5.1024,,5.4022,,5.1747,,5.4194,,,222.228,234.8160,241.4892,225.379,245.1354,241.8929,241.6911,0.3258,,2.0129,3.8320,2.3705,,1.9381,,25.4012,,25.3974,,,,,,,,,,,13.2776,13.2788,0.0554,257.218,85.930,87.148,,,,,,,,,,,,
CalCOFI,2105SH,039,,2105_039d,13-May-2021 00:21:20,12-May-2021 16:21:20,34.45136,-120.52344,080.0 051.0,080.0,051.0,23.000,23.167,,13.2494,,13.2497,,13.2496,33.7931,,33.7943,33.7892,,33.7911,33.7927,5.0870,,5.3861,,5.1699,,5.4144,,,221.555,234.1124,240.8139,225.167,244.4085,241.6740,241.2440,0.3496,,2.1565,4.0678,2.3650,,1.9381,,25.4087,,25.4056,,,,,,,,,,,13.2463,13.2465,0.0580,256.526,85.616,87.010,,,,,,,,,,,,
CalCOFI,2105SH,039,,2105_039d,13-May-2021 00:21:22,12-May-2021 16:21:22,34.45136,-120.52342,080.0 051.0,080.0,051.0,24.000,24.175,,13.2346,,13.2343,,13.2345,33.7927,,33.7939,33.7896,,33.7915,33.7927,5.1013,,5.4010,,5.1634,,5.4076,,,222.180,234.7658,241.4411,224.883,245.0835,241.3807,241.4109,0.3248,,2.0068,3.8221,2.3588,,1.9381,,25.4114,,25.4091,,,,,,,,,,,13.2313,13.2310,0.0606,256.299,85.832,86.874,,,,,,,,,,,,
CalCOFI,2105SH,039,,2105_039d,13-May-2021 00:21:23,12-May-2021 16:21:23,34.45136,-120.52342,080.0 051.0,080.0,051.0,25.000,25.182,,13.2246,,13.2254,,13.2250,33.7939,,33.7951,33.7914,,33.7933,33.7942,5.0847,,5.3837,,5.1387,,5.3821,,,221.454,234.0068,240.7126,223.806,244.2994,240.2685,240.4906,0.3033,,1.8746,3.6091,2.3534,,1.9381,,25.4144,,25.4123,,,,,,,,,,,13.2211,13.2220,0.0631,256.047,85.535,86.443,,,,,,,,,,,,
CalCOFI,2105SH,039,,2105_039d,13-May-2021 00:21:24,12-May-2021 16:21:24,34.45136,-120.52342,080.0 051.0,080.0,051.0,26.000,26.190,,13.2152,,13.2151,,13.2152,33.7947,,33.7959,33.7919,,33.7938,33.7949,5.0450,,5.3422,,5.1123,,5.3547,,,219.726,232.2004,238.9785,222.655,242.4332,239.0798,239.0292,0.2845,,1.7572,3.4229,2.3487,,1.9381,,25.4169,,25.4148,,,,,,,,,,,13.2116,13.2115,0.0657,255.828,84.851,85.981,,,,,,,,,,,,
CalCOFI,2105SH,039,,2105_039d,13-May-2021 00:21:26,12-May-2021 16:21:26,34.45136,-120.52342,080.0 051.0,080.0,051.0,27.000,27.197,,13.1876,,13.1837,,13.1857,33.7954,,33.7966,33.7917,,33.7936,33.7951,5.0364,,5.3332,,5.1046,,5.3467,,,219.351,231.8083,238.6022,222.318,242.0282,238.7318,238.6670,0.2908,,1.7968,3.4853,2.3421,,1.9381,,25.4230,,25.4210,,,,,,,,,,,13.1839,13.1799,0.0683,255.277,84.659,85.796,,,,,,,,,,,,
CalCOFI,2105SH,039,,2105_039d,13-May-2021 00:21:29,12-May-2021 16:21:29,34.45136,-120.52341,080.0 051.0,080.0,051.0,28.000,28.204,,13.1604,,13.1596,,13.1600,33.7943,,33.7955,33.7916,,33.7935,33.7945,4.9745,,5.2684,,5.0433,,5.2833,,,216.653,228.9878,235.8949,219.651,239.1143,235.9776,235.9363,0.2541,,1.5638,3.1217,2.3286,,1.9381,,25.4277,,25.4257,,,,,,,,,,,13.1565,13.1558,0.0709,254.861,83.571,84.725,,,,,,,,,,,,
CalCOFI,2105SH,039,,2105_039d,13-May-2021 00:21:30,12-May-2021 16:21:30,34.45136,-120.52340,080.0 051.0,080.0,051.0,29.000,29.212,,13.1355,,13.1367,,13.1361,33.7932,,33.7944,33.7909,,33.7928,33.7936,4.9572,,5.2503,,5.0166,,5.2556,,,215.898,228.1986,235.1373,218.486,238.2989,234.7745,234.9559,0.2716,,1.6757,3.2951,2.3238,,1.9381,,25.4318,,25.4298,,,,,,,,,,,13.1315,13.1328,0.0734,254.498,83.237,84.236,,,,,,,,,,,,
CalCOFI,2105SH,039,,2105_039d,13-May-2021 00:21:31,12-May-2021 16:21:31,34.45136,-120.52340,080.0 051.0,080.0,051.0,30.000,30.219,,13.1141,,13.1140,,13.1141,33.7946,,33.7958,33.7902,,33.7921,33.7940,4.9418,,5.2342,,5.0180,,5.2570,,,215.226,227.4961,234.4629,218.547,237.5732,234.8374,234.6502,0.2496,,1.5348,3.0771,2.3205,,1.9381,,25.4372,,25.4338,,,,,,,,,,,13.1100,13.1099,0.0760,254.011,82.943,84.220,,,,,,,,,,,,
CalCOFI,2105SH,039,,2105_039d,13-May-2021 00:21:32,12-May-2021 16:21:32,34.45136,-120.52340,080.0 051.0,080.0,051.0,31.000,31.226,,13.0912,,13.0914,,13.0913,33.7933,,33.7945,33.7902,,33.7921,33.7933,4.9424,,5.2349,,5.0347,,5.2743,,,215.253,227.5243,234.4900,219.272,237.6023,235.5862,235.0381,0.2181,,1.3290,2.7651,2.3174,,1.9381,,25.4407,,25.4384,,,,,,,,,,,13.0870,13.0871,0.0786,253.697,82.914,84.460,31,13.118,,,230.69,3.265,0.818,8.34,0.150,0.38,0.87,11.83
CalCOFI,2105SH,039,,2105_039d,13-May-2021 00:21:33,12-May-2021 16:21:33,34.45136,-120.52340,080.0 051.0,080.0,051.0,32.000,32.234,,13.0880,,13.0893,,13.0887,33.7922,,33.7934,33.7903,,33.7922,33.7928,4.9746,,5.2685,,5.0811,,5.3224,,,216.654,228.9889,235.8959,221.292,239.1154,237.6723,236.7841,0.2332,,1.4283,2.9147,2.3133,,1.9381,,25.4406,,25.4389,,,,,,,,,,,13.0837,13.0849,0.0811,253.741,83.447,85.235,,,,,,,,,,,,
CalCOFI,2105SH,039,,2105_039d,13-May-2021 00:21:36,12-May-2021 16:21:36,34.45136,-120.52340,080.0 051.0,080.0,051.0,33.000,33.241,,13.1022,,13.1064,,13.1043,33.7960,,33.7972,33.7964,,33.7983,33.7978,5.0132,,5.3089,,5.0854,,5.3269,,,218.334,230.7452,237.5817,221.481,240.9298,237.8674,237.7246,0.2664,,1.6426,3.2436,2.3066,,1.9381,,25.4407,,25.4402,,,,,,,,,,,13.0977,13.1019,0.0837,253.755,84.121,85.341,,,,,,,,,,,,
CalCOFI,2105SH,039,,2105_039d,13-May-2021 00:21:37,12-May-2021 16:21:37,34.45138,-120.52339,080.0 051.0,080.0,051.0,34.000,34.249,,13.1063,,13.1061,,13.1062,33.7983,,33.7995,33.7969,,33.7988,33.7992,4.9847,,5.2791,,5.0633,,5.3040,,,217.094,229.4489,236.3374,220.519,239.5906,236.8740,236.6057,0.2653,,1.6356,3.2327,2.3035,,1.9381,,25.4417,,25.4407,,,,,,,,,,,13.1017,13.1014,0.0862,253.693,83.651,84.970,,,,,,,,,,,,
CalCOFI,2105SH,039,,2105_039d,13-May-2021 00:21:39,12-May-2021 16:21:39,34.45137,-120.52338,080.0 051.0,080.0,051.0,35.000,35.256,,13.1026,,13.1034,,13.1030,33.7980,,33.7992,33.7971,,33.7990,33.7991,4.9882,,5.2828,,5.0772,,5.3184,,,217.248,229.6099,236.4919,221.122,239.7569,237.4967,236.9943,0.2580,,1.5889,3.1603,2.3024,,1.9381,,25.4423,,25.4414,,,,,,,,,,,13.0978,13.0987,0.0888,253.665,83.704,85.198,,,,,,,,,,,,
CalCOFI,2105SH,039,,2105_039d,13-May-2021 00:21:40,12-May-2021 16:21:40,34.45136,-120.52338,080.0 051.0,080.0,051.0,36.000,36.263,,13.0925,,13.0928,,13.0927,33.7956,,33.7968,33.7949,,33.7968,33.7968,5.0146,,5.3104,,5.0878,,5.3293,,,218.395,230.8089,237.6429,221.584,240.9957,237.9738,237.8084,0.2565,,1.5793,3.1455,2.3017,,1.9381,,25.4425,,25.4418,,,,,,,,,,,13.0876,13.0878,0.0913,253.673,84.128,85.356,,,,,,,,,,,,
CalCOFI,2105SH,039,,2105_039d,13-May-2021 00:21:42,12-May-2021 16:21:42,34.45136,-120.52338,080.0 051.0,080.0,051.0,37.000,37.271,,13.0989,,13.0999,,13.0994,33.7979,,33.7991,33.7976,,33.7995,33.7993,5.0092,,5.3047,,5.0849,,5.3263,,,218.158,230.5612,237.4051,221.458,240.7397,237.8437,237.6244,0.2743,,1.6928,3.3218,2.3018,,1.9381,,25.4430,,25.4425,,,,,,,,,,,13.0938,13.0948,0.0939,253.650,84.048,85.321,,,,,,,,,,,,
CalCOFI,2105SH,039,,2105_039d,13-May-2021 00:21:44,12-May-2021 16:21:44,34.45137,-120.52339,080.0 051.0,080.0,051.0,38.000,38.278,,13.0997,,13.1001,,13.0999,33.7990,,33.8002,33.7983,,33.8002,33.8002,5.0212,,5.3173,,5.0854,,5.3269,,,218.685,231.1121,237.9339,221.478,241.3089,237.8643,237.8991,0.2751,,1.6979,3.3298,2.3028,,1.9381,,25.4437,,25.4430,,,,,,,,,,,13.0945,13.0949,0.0964,253.614,84.253,85.330,,,,,,,,,,,,
CalCOFI,2105SH,039,,2105_039d,13-May-2021 00:21:45,12-May-2021 16:21:45,34.45138,-120.52338,080.0 051.0,080.0,051.0,39.000,39.286,,13.0957,,13.0953,,13.0955,33.7994,,33.8006,33.7983,,33.8002,33.8004,5.0215,,5.3176,,5.0973,,5.3392,,,218.695,231.1226,237.9440,221.999,241.3197,238.4024,238.1732,0.2617,,1.6126,3.1970,2.3035,,1.9381,,25.4448,,25.4440,,,,,,,,,,,13.0904,13.0900,0.0990,253.533,84.251,85.522,,,,,,,,,,,,
CalCOFI,2105SH,039,,2105_039d,13-May-2021 00:21:46,12-May-2021 16:21:46,34.45138,-120.52338,080.0 051.0,080.0,051.0,40.000,40.293,,13.0892,,13.0894,,13.0893,33.7998,,33.8010,33.7992,,33.8011,33.8011,5.0206,,5.3166,,5.1012,,5.3432,,,218.658,231.0839,237.9068,222.166,241.2797,238.5748,238.2408,0.2555,,1.5728,3.1356,2.3042,,1.9381,,25.4464,,25.4460,,,,,,,,,,,13.0838,13.0839,0.1016,253.406,84.226,85.577,,,,,,,,,,,,
CalCOFI,2105SH,039,,2105_039d,13-May-2021 00:21:49,12-May-2021 16:21:49,34.45138,-120.52338,080.0 051.0,080.0,051.0,41.000,41.300,,13.0914,,13.0922,,13.0918,33.8012,,33.8024,33.8005,,33.8024,33.8024,5.0253,,5.3216,,5.0990,,5.3409,,,218.861,231.2961,238.1105,222.071,241.4990,238.4767,238.2936,0.2642,,1.6286,3.2218,2.3057,,1.9381,,25.4471,,25.4464,,,,,,,,,,,13.0858,13.0866,0.1041,253.371,84.308,85.546,,,,,,,,,,,,
CalCOFI,2105SH,039,,2105_039d,13-May-2021 00:21:51,12-May-2021 16:21:51,34.45138,-120.52338,080.0 051.0,080.0,051.0,42.000,42.308,,13.0850,,13.0855,,13.0853,33.8028,,33.8040,33.8014,,33.8033,33.8037,5.0370,,5.3338,,5.1079,,5.3502,,,219.368,231.8261,238.6193,222.457,242.0466,238.8754,238.7474,0.2661,,1.6407,3.2406,2.3063,,1.9381,,25.4497,,25.4485,,,,,,,,,,,13.0793,13.0798,0.1067,253.151,84.494,85.683,,,,,,,,,,,,
CalCOFI,2105SH,039,,2105_039d,13-May-2021 00:21:52,12-May-2021 16:21:52,34.45138,-120.52338,080.0 051.0,080.0,051.0,43.000,43.315,,13.0665,,13.0643,,13.0654,33.8061,,33.8073,33.8054,,33.8073,33.8073,5.0507,,5.3481,,5.1033,,5.3454,,,219.966,232.4513,239.2194,222.256,242.6924,238.6678,238.9436,0.2666,,1.6439,3.2455,2.3061,,1.9381,,25.4559,,25.4558,,,,,,,,,,,13.0606,13.0584,0.1092,252.583,84.694,85.571,,,,,,,,,,,,
CalCOFI,2105SH,039,,2105_039d,13-May-2021 00:21:53,12-May-2021 16:21:53,34.45136,-120.52338,080.0 051.0,080.0,051.0,44.000,44.323,,13.0600,,13.0611,,13.0606,33.8072,,33.8084,33.8065,,33.8084,33.8084,5.0480,,5.3453,,5.1019,,5.3439,,,219.849,232.3289,239.1020,222.193,242.5660,238.6027,238.8524,0.2475,,1.5212,3.0563,2.3052,,1.9381,,25.4581,,25.4573,,,,,,,,,,,13.0540,13.0551,0.1117,252.404,84.638,85.542,,,,,,,,,,,,
CalCOFI,2105SH,039,,2105_039d,13-May-2021 00:21:55,12-May-2021 16:21:55,34.45136,-120.52338,080.0 051.0,080.0,051.0,45.000,45.330,,13.0579,,13.0580,,13.0580,33.8071,,33.8083,33.8062,,33.8081,33.8082,4.9976,,5.2926,,5.0543,,5.2946,,,217.650,230.0301,236.8953,220.123,240.1911,236.4650,236.6802,0.2423,,1.4875,3.0048,2.3011,,1.9381,,25.4585,,25.4578,,,,,,,,,,,13.0518,13.0518,0.1143,252.396,83.788,84.740,,,,,,,,,,,,
CalCOFI,2105SH,039,,2105_039d,13-May-2021 00:21:58,12-May-2021 16:21:58,34.45136,-120.52338,080.0 051.0,080.0,051.0,46.000,46.338,,13.0221,,13.0212,,13.0217,33.8093,,33.8105,33.8062,,33.8081,33.8093,4.8837,,5.1735,,4.9342,,5.1702,,,212.692,224.8470,231.9201,214.892,234.8365,231.0629,231.4915,0.2274,,1.3903,2.8572,2.2916,,1.9381,,25.4673,,25.4651,,,,,,,,,,,13.0158,13.0150,0.1168,251.582,81.821,82.664,,,,,,,,,,,,
CalCOFI,2105SH,039,,2105_039d,13-May-2021 00:21:59,12-May-2021 16:21:59,34.45136,-120.52337,080.0 051.0,080.0,051.0,47.000,47.345,,12.9586,,12.9558,,12.9572,33.8096,,33.8108,33.8054,,33.8073,33.8091,4.8063,,5.0925,,4.8657,,5.0993,,,209.315,221.3167,228.5314,211.902,231.1893,227.9751,228.2533,0.2182,,1.3297,2.7661,2.2822,,1.9381,,25.4802,,25.4775,,,,,,,,,,,12.9522,12.9494,0.1194,250.376,80.418,81.404,,,,,,,,,,,,
CalCOFI,2105SH,039,,2105_039d,13-May-2021 00:22:02,12-May-2021 16:22:02,34.45136,-120.52336,080.0 051.0,080.0,051.0,48.000,48.352,,12.8518,,12.8525,,12.8522,33.8098,,33.8110,33.8057,,33.8076,33.8093,4.7564,,5.0403,,4.8145,,5.0463,,,207.139,219.0419,226.3478,209.671,228.8392,225.6711,226.0095,0.1708,,1.0111,2.2965,2.2649,,1.9381,,25.5015,,25.4982,,,,,,,,,,,12.8453,12.8460,0.1219,248.373,79.408,80.377,,,,,,,,,,,,
CalCOFI,2105SH,039,,2105_039d,13-May-2021 00:22:03,12-May-2021 16:22:03,34.45138,-120.52336,080.0 051.0,080.0,051.0,49.000,49.360,,12.8219,,12.8222,,12.8221,33.8085,,33.8097,33.8053,,33.8072,33.8085,4.7378,,5.0209,,4.7765,,5.0069,,,206.328,218.1941,225.5340,208.015,227.9633,223.9609,224.7475,0.1668,,0.9837,2.2569,2.2502,,1.9381,,25.5064,,25.5039,,,,,,,,,,,12.8153,12.8156,0.1244,247.927,79.048,79.693,,,,,,,,,,,,
CalCOFI,2105SH,039,,2105_039d,13-May-2021 00:22:05,12-May-2021 16:22:05,34.45138,-120.52336,080.0 051.0,080.0,051.0,50.000,50.367,,12.8007,,12.8004,,12.8006,33.8091,,33.8103,33.8059,,33.8078,33.8091,4.6950,,4.9761,,4.7562,,4.9859,,,204.464,216.2455,223.6635,207.127,225.9502,223.0439,223.3537,0.1639,,0.9638,2.2281,2.2399,,1.9381,,25.5110,,25.5086,,,,,,,,,,,12.7940,12.7937,0.1269,247.515,78.300,79.317,,,,,,,,,,,,
CalCOFI,2105SH,039,,2105_039d,13-May-2021 00:22:06,12-May-2021 16:22:06,34.45137,-120.52336,080.0 051.0,080.0,051.0,51.000,51.375,,12.7735,,12.7712,,12.7724,33.8101,,33.8113,33.8063,,33.8082,33.8098,4.6647,,4.9444,,4.7620,,4.9919,,,203.142,214.8634,222.3369,207.380,224.5224,223.3051,222.8210,0.1650,,0.9714,2.2390,2.2296,,1.9381,,25.5172,,25.5147,,,,,,,,,,,12.7666,12.7643,0.1294,246.949,77.751,79.367,51,12.746,,,216.48,1.936,0.597,9.43,0.171,0.44,0.95,13.04
CalCOFI,2105SH,039,,2105_039d,13-May-2021 00:22:24,12-May-2021 16:22:24,34.45137,-120.52333,080.0 051.0,080.0,051.0,52.000,52.382,,12.6896,,12.6886,,12.6891,33.8093,,33.8105,33.8102,,33.8121,33.8113,4.7090,,4.9908,,4.7642,,4.9942,,,205.066,216.8748,224.2676,207.473,226.6004,223.4012,223.8344,0.1314,,0.7381,1.9062,2.1605,,1.9381,,25.5331,,25.5340,,,,,,,,,,,12.6827,12.6817,0.1362,245.460,78.353,79.271,,,,,,,,,,,,
